map of ZOS home
ZOS - Airport
Location
City:  Osorno, Los Lagos, Chile
Name:Caņal Bajo-Carlos Hott Siebert Airport
ICAO:SCJO
IATA:ZOS

Details
Type:Airport (Aerodrome, Airfield)
Use:Public/Civil
Latitude:40°36'41"S (-40.611388)
Longitude:73°03'38"W (-73.060555)
Elevation:187 ft (57 m)
Variation:7.77°E (WMM2015v2 magnetic declination)
-0.13° annual change
Runways:1
Longest:5577 × 148 ft (1700 × 45 m), paved

Time
Time Zone:UTC-4 (DST-3)
Local Time:

Weather
METAR:SCJO 041400Z 30004KT CAVOK 27/14 Q1009
TAF:SCJO 041045Z 0412/0424 VRB04KT CAVOK TN13/0412Z TX31/0420Z
BECMG 0419/0421 26010KT

Related Locations
Nearby:
Farthest:RLK: 12391 mi / 19941 km
Bayannur [Bayannur Tianjitai Airport], 15, CN

Find:

   beyond  
but within

Other Information
Maps:
NOTAMs:
Links:
Sources:

  
  • flag of Chile
  • flag of Los Lagos
  

Sectional Chart

Flight Planning
at skyvector.com

Satellite Image

Google Maps Satellite view

 

Copyright © 2004-2019 Karl L. Swartz. All rights reserved.
The Great Circle Mapper name and logo are trademarks of the Great Circle Mapper.
All other trademarks mentioned herein belong to their respective owners.
Please see credits for attibutions and further copyright information.

  Follow gcmap on Facebook Follow gcmap on Twitter GCmap on LinkedIn

hCard Microformat

Geo Microformat